This demonstration page uses our WeatherBlox Daily Observations layout. Learn more.

Hourly Observations for December 22, 2018

Temp ( °F °C ) Dew Point ( °F °C ) Humidity (%) Winds ( mph kmh ) Pressure ( in mb ) Visibility ( mi km ) Precip ( " mm )
12:15 am 00:15 Cloudy with Rain 41 5 39 4 93 93 NW 20 31 29.35 994 5 8.04672 0.02 0.508
12:35 am 00:35 Cloudy with Light Rain 41 5 39 4 93 93 NW 17 28 29.38 995 10 16.09344 0.03 0.762
12:55 am 00:55 Cloudy 41 5 39 4 93 93 NW 18 30 29.38 995 10 16.09344 0.03 0.762
1:15 am 01:15 Cloudy 43 6 37 3 81 81 NW 16 26 29.38 995 10 16.09344 0 0
1:35 am 01:35 Cloudy 43 6 37 3 81 81 NW 17 28 29.38 995 10 16.09344 0 0
1:55 am 01:55 Cloudy 43 6 37 3 81 81 WNW 15 24 29.41 996 10 16.09344 0 0
2:15 am 02:15 Cloudy 43 6 37 3 81 81 NW 22 35 29.41 996 10 16.09344 0 0
2:35 am 02:35 Cloudy 43 6 37 3 81 81 NW 22 35 29.41 996 10 16.09344 0 0
2:55 am 02:55 Cloudy 43 6 37 3 81 81 NW 21 33 29.44 997 10 16.09344 0 0
3:15 am 03:15 Cloudy 43 6 36 2 76 76 WNW 15 24 29.44 997 10 16.09344 0 0
3:35 am 03:35 Cloudy 43 6 36 2 76 76 WNW 18 30 29.44 997 10 16.09344 0 0
3:55 am 03:55 Cloudy 43 6 36 2 76 76 NW 16 26 29.47 998 10 16.09344 0 0
4:15 am 04:15 Cloudy 43 6 37 3 81 81 WNW 16 26 29.47 998 10 16.09344 0 0
4:35 am 04:35 Cloudy 45 7 37 3 76 76 WNW 12 19 29.5 999 10 16.09344 0 0
4:55 am 04:55 Mostly Cloudy 45 7 37 3 76 76 NW 17 28 29.5 999 10 16.09344 0 0
5:15 am 05:15 Mostly Cloudy 45 7 37 3 76 76 WNW 16 26 29.5 999 10 16.09344 0 0
5:35 am 05:35 Mostly Cloudy 45 7 37 3 76 76 WNW 20 31 29.53 1000 10 16.09344 0 0
5:55 am 05:55 Mostly Cloudy 45 7 37 3 76 76 WNW 22 35 29.53 1000 10 16.09344 0 0
6:15 am 06:15 Partly Cloudy 45 7 37 3 76 76 WNW 22 35 29.56 1001 10 16.09344 0 0
6:35 am 06:35 Partly Cloudy 45 7 37 3 76 76 NW 20 31 29.56 1001 10 16.09344 0 0
6:55 am 06:55 Mostly Cloudy 45 7 36 2 71 71 WNW 18 30 29.59 1002 10 16.09344 0 0
7:15 am 07:15 Mostly Cloudy 45 7 36 2 71 71 NW 17 28 29.59 1002 10 16.09344 0 0
7:35 am 07:35 Partly Cloudy 45 7 36 2 71 71 WNW 20 31 29.62 1003 10 16.09344 0 0
7:55 am 07:55 Partly Cloudy 45 7 36 2 71 71 NW 17 28 29.62 1003 10 16.09344 0 0
8:15 am 08:15 Sunny 45 7 36 2 71 71 NW 26 43 29.65 1004 10 16.09344 0 0
8:35 am 08:35 Sunny 45 7 36 2 71 71 NW 22 35 29.65 1004 10 16.09344 0 0
8:55 am 08:55 Sunny 45 7 36 2 71 71 WNW 23 37 29.68 1005 10 16.09344 0 0
9:15 am 09:15 Sunny 46 8 36 2 66 66 WNW 23 37 29.71 1006 10 16.09344 0 0
9:35 am 09:35 Partly Cloudy 46 8 36 2 66 66 WNW 18 30 29.74 1007 10 16.09344 0 0
9:55 am 09:55 Mostly Cloudy 46 8 36 2 66 66 WNW 21 33 29.74 1007 10 16.09344 0 0
10:15 am 10:15 Mostly Cloudy 46 8 36 2 66 66 NW 28 44 29.77 1008 10 16.09344 0 0
10:35 am 10:35 Partly Cloudy 46 8 36 2 66 66 WNW 26 43 29.77 1008 10 16.09344 0 0
10:55 am 10:55 Partly Cloudy 48 9 36 2 62 62 NW 18 30 29.77 1008 10 16.09344 0 0
11:15 am 11:15 Mostly Cloudy 48 9 36 2 62 62 NW 21 33 29.8 1009 10 16.09344 0 0
11:35 am 11:35 Mostly Cloudy 46 8 34 1 62 62 NW 22 35 29.8 1009 10 16.09344 0 0
11:55 am 11:55 Partly Cloudy 46 8 36 2 66 66 WNW 25 41 29.8 1009 10 16.09344 0 0
12:15 pm 12:15 Cloudy 46 8 36 2 66 66 NW 17 28 29.83 1010 10 16.09344 0 0
12:35 pm 12:35 Cloudy 46 8 36 2 66 66 WNW 18 30 29.83 1010 10 16.09344 0 0
12:55 pm 12:55 Cloudy 46 8 34 1 62 62 NW 12 19 29.83 1010 10 16.09344 0 0
1:15 pm 13:15 Cloudy 46 8 34 1 62 62 NW 17 28 29.88 1012 10 16.09344 0 0
1:35 pm 13:35 Cloudy 46 8 34 1 62 62 NW 20 31 29.88 1012 10 16.09344 0 0
1:55 pm 13:55 Cloudy 46 8 34 1 62 62 WNW 18 30 29.91 1013 10 16.09344 0 0
2:15 pm 14:15 Cloudy 46 8 34 1 62 62 NW 26 43 29.91 1013 10 16.09344 0 0
2:35 pm 14:35 Partly Cloudy 46 8 34 1 62 62 WNW 30 48 29.91 1013 10 16.09344 0 0
2:55 pm 14:55 Partly Cloudy 45 7 34 1 66 66 W 21 33 29.94 1014 10 16.09344 0 0
3:15 pm 15:15 Mostly Cloudy 46 8 34 1 62 62 NW 20 31 29.94 1014 10 16.09344 0 0
3:35 pm 15:35 Partly Cloudy 45 7 34 1 66 66 NW 17 28 29.97 1015 10 16.09344 0 0
3:55 pm 15:55 Sunny 45 7 34 1 66 66 NW 22 35 29.97 1015 10 16.09344 0 0
4:15 pm 16:15 Sunny 45 7 34 1 66 66 NNW 21 33 29.97 1015 10 16.09344 0 0
4:35 pm 16:35 Sunny 45 7 34 1 66 66 NW 20 31 30 1016 10 16.09344 0 0
4:55 pm 16:55 Clear 43 6 34 1 71 71 NW 13 20 30 1016 10 16.09344 0 0
5:15 pm 17:15 Clear 43 6 32 0 66 66 WNW 8 13 30 1016 10 16.09344 0 0
5:35 pm 17:35 Clear 41 5 34 1 76 76 WNW 9 15 30.03 1017 10 16.09344 0 0
5:55 pm 17:55 Clear 41 5 34 1 76 76 WNW 7 11 30.03 1017 10 16.09344 0 0
6:15 pm 18:15 Clear 43 6 32 0 66 66 WNW 12 19 30.03 1017 10 16.09344 0 0
6:35 pm 18:35 Clear 43 6 32 0 66 66 NW 16 26 30.03 1017 10 16.09344 0 0
6:55 pm 18:55 Clear 43 6 32 0 66 66 NW 16 26 30.03 1017 10 16.09344 0 0
7:15 pm 19:15 Clear 43 6 32 0 66 66 NW 10 17 30.06 1018 10 16.09344 0 0
7:35 pm 19:35 Clear 43 6 32 0 66 66 WNW 17 28 30.06 1018 10 16.09344 0 0
7:55 pm 19:55 Clear 41 5 32 0 70 70 NW 12 19 30.06 1018 10 16.09344 0 0
8:15 pm 20:15 Mostly Cloudy 41 5 32 0 70 70 NW 7 11 30.09 1019 10 16.09344 0 0
8:35 pm 20:35 Mostly Cloudy 41 5 32 0 70 70 NW 16 26 30.09 1019 10 16.09344 0 0
8:55 pm 20:55 Clear 41 5 32 0 70 70 NW 10 17 30.09 1019 10 16.09344 0 0
9:15 pm 21:15 Clear 41 5 32 0 70 70 NW 15 24 30.09 1019 10 16.09344 0 0
9:35 pm 21:35 Clear 41 5 32 0 70 70 NW 15 24 30.09 1019 10 16.09344 0 0
9:55 pm 21:55 Clear 41 5 32 0 70 70 NW 15 24 30.12 1020 10 16.09344 0 0
10:15 pm 22:15 Partly Cloudy 41 5 32 0 70 70 WNW 14 22 30.12 1020 10 16.09344 0 0
10:35 pm 22:35 Mostly Cloudy 41 5 32 0 70 70 NW 17 28 30.12 1020 10 16.09344 0 0
10:55 pm 22:55 Partly Cloudy 41 5 32 0 70 70 NW 14 22 30.12 1020 10 16.09344 0 0
11:15 pm 23:15 Partly Cloudy 41 5 32 0 70 70 NW 7 11 30.15 1021 10 16.09344 0 0
11:35 pm 23:35 Cloudy 39 4 32 0 75 75 NW 8 13 30.15 1021 10 16.09344 0 0
11:55 pm 23:55 Partly Cloudy 39 4 32 0 75 75 WNW 9 15 30.15 1021 10 16.09344 0 0

Powered by AerisWeather